Index of /20260508/WXO-DD/model_rdps/10km/06/083
Name Last modified Size Description
Parent Directory -
20260508T06Z_MSC_RDPS_AbsoluteVorticity_IsbL-0250_RLatLon0.09_PT083H.grib2 2026-05-08 09:04 606K
20260508T06Z_MSC_RDPS_AbsoluteVorticity_IsbL-0500_RLatLon0.09_PT083H.grib2 2026-05-08 09:04 574K
20260508T06Z_MSC_RDPS_AbsoluteVorticity_IsbL-0700_RLatLon0.09_PT083H.grib2 2026-05-08 09:04 627K
20260508T06Z_MSC_RDPS_AbsoluteVorticity_IsbL-0850_RLatLon0.09_PT083H.grib2 2026-05-08 09:04 791K
20260508T06Z_MSC_RDPS_AirTemp_AGL-120m_RLatLon0.09_PT083H.grib2 2026-05-08 09:04 385K
20260508T06Z_MSC_RDPS_AirTemp_AGL-2m_RLatLon0.09_PT083H.grib2 2026-05-08 09:04 631K
20260508T06Z_MSC_RDPS_AirTemp_AGL-40m_RLatLon0.09_PT083H.grib2 2026-05-08 09:04 394K
20260508T06Z_MSC_RDPS_AirTemp_AGL-80m_RLatLon0.09_PT083H.grib2 2026-05-08 09:04 389K
20260508T06Z_MSC_RDPS_AirTemp_IsbL-0001_RLatLon0.09_PT083H.grib2 2026-05-08 09:04 330K
20260508T06Z_MSC_RDPS_AirTemp_IsbL-0005_RLatLon0.09_PT083H.grib2 2026-05-08 09:04 293K
20260508T06Z_MSC_RDPS_AirTemp_IsbL-0010_RLatLon0.09_PT083H.grib2 2026-05-08 09:04 392K
20260508T06Z_MSC_RDPS_AirTemp_IsbL-0020_RLatLon0.09_PT083H.grib2 2026-05-08 09:04 322K
20260508T06Z_MSC_RDPS_AirTemp_IsbL-0030_RLatLon0.09_PT083H.grib2 2026-05-08 09:04 343K
20260508T06Z_MSC_RDPS_AirTemp_IsbL-0050_RLatLon0.09_PT083H.grib2 2026-05-08 09:04 312K
20260508T06Z_MSC_RDPS_AirTemp_IsbL-0100_RLatLon0.09_PT083H.grib2 2026-05-08 09:04 425K
20260508T06Z_MSC_RDPS_AirTemp_IsbL-0150_RLatLon0.09_PT083H.grib2 2026-05-08 09:04 404K
20260508T06Z_MSC_RDPS_AirTemp_IsbL-0175_RLatLon0.09_PT083H.grib2 2026-05-08 09:04 396K
20260508T06Z_MSC_RDPS_AirTemp_IsbL-0200_RLatLon0.09_PT083H.grib2 2026-05-08 09:04 403K
20260508T06Z_MSC_RDPS_AirTemp_IsbL-0225_RLatLon0.09_PT083H.grib2 2026-05-08 09:04 411K
20260508T06Z_MSC_RDPS_AirTemp_IsbL-0250_RLatLon0.09_PT083H.grib2 2026-05-08 09:04 426K
20260508T06Z_MSC_RDPS_AirTemp_IsbL-0275_RLatLon0.09_PT083H.grib2 2026-05-08 09:04 406K
20260508T06Z_MSC_RDPS_AirTemp_IsbL-0300_RLatLon0.09_PT083H.grib2 2026-05-08 09:04 410K
20260508T06Z_MSC_RDPS_AirTemp_IsbL-0350_RLatLon0.09_PT083H.grib2 2026-05-08 09:04 420K
20260508T06Z_MSC_RDPS_AirTemp_IsbL-0400_RLatLon0.09_PT083H.grib2 2026-05-08 09:04 424K
20260508T06Z_MSC_RDPS_AirTemp_IsbL-0450_RLatLon0.09_PT083H.grib2 2026-05-08 09:04 432K
20260508T06Z_MSC_RDPS_AirTemp_IsbL-0500_RLatLon0.09_PT083H.grib2 2026-05-08 09:04 443K
20260508T06Z_MSC_RDPS_AirTemp_IsbL-0550_RLatLon0.09_PT083H.grib2 2026-05-08 09:04 462K
20260508T06Z_MSC_RDPS_AirTemp_IsbL-0600_RLatLon0.09_PT083H.grib2 2026-05-08 09:04 481K
20260508T06Z_MSC_RDPS_AirTemp_IsbL-0650_RLatLon0.09_PT083H.grib2 2026-05-08 09:04 499K
20260508T06Z_MSC_RDPS_AirTemp_IsbL-0700_RLatLon0.09_PT083H.grib2 2026-05-08 09:04 526K
20260508T06Z_MSC_RDPS_AirTemp_IsbL-0750_RLatLon0.09_PT083H.grib2 2026-05-08 09:04 532K
20260508T06Z_MSC_RDPS_AirTemp_IsbL-0800_RLatLon0.09_PT083H.grib2 2026-05-08 09:04 590K
20260508T06Z_MSC_RDPS_AirTemp_IsbL-0850_RLatLon0.09_PT083H.grib2 2026-05-08 09:04 640K
20260508T06Z_MSC_RDPS_AirTemp_IsbL-0875_RLatLon0.09_PT083H.grib2 2026-05-08 09:04 658K
20260508T06Z_MSC_RDPS_AirTemp_IsbL-0900_RLatLon0.09_PT083H.grib2 2026-05-08 09:04 668K
20260508T06Z_MSC_RDPS_AirTemp_IsbL-0925_RLatLon0.09_PT083H.grib2 2026-05-08 09:04 538K
20260508T06Z_MSC_RDPS_AirTemp_IsbL-0950_RLatLon0.09_PT083H.grib2 2026-05-08 09:04 544K
20260508T06Z_MSC_RDPS_AirTemp_IsbL-0970_RLatLon0.09_PT083H.grib2 2026-05-08 09:04 542K
20260508T06Z_MSC_RDPS_AirTemp_IsbL-0985_RLatLon0.09_PT083H.grib2 2026-05-08 09:04 533K
20260508T06Z_MSC_RDPS_AirTemp_IsbL-1000_RLatLon0.09_PT083H.grib2 2026-05-08 09:04 514K
20260508T06Z_MSC_RDPS_AirTemp_IsbL-1015_RLatLon0.09_PT083H.grib2 2026-05-08 09:04 515K
20260508T06Z_MSC_RDPS_Albedo_Sfc_RLatLon0.09_PT083H.grib2 2026-05-08 09:04 156K
20260508T06Z_MSC_RDPS_CAPE_Sfc_RLatLon0.09_PT083H.grib2 2026-05-08 09:04 1.8M
20260508T06Z_MSC_RDPS_CIN_Sfc_RLatLon0.09_PT083H.grib2 2026-05-08 09:04 1.3M
20260508T06Z_MSC_RDPS_CloudWater_EAtm_RLatLon0.09_PT083H.grib2 2026-05-08 09:04 229K
20260508T06Z_MSC_RDPS_ConvectivePrecip-Accum_Sfc_RLatLon0.09_PT083H.grib2 2026-05-08 09:04 1.4M
20260508T06Z_MSC_RDPS_DewPointDepression_AGL-2m_RLatLon0.09_PT083H.grib2 2026-05-08 09:04 422K
20260508T06Z_MSC_RDPS_DewPointDepression_IsbL-0001_RLatLon0.09_PT083H.grib2 2026-05-08 09:04 193
20260508T06Z_MSC_RDPS_DewPointDepression_IsbL-0005_RLatLon0.09_PT083H.grib2 2026-05-08 09:04 193
20260508T06Z_MSC_RDPS_DewPointDepression_IsbL-0010_RLatLon0.09_PT083H.grib2 2026-05-08 09:04 193
20260508T06Z_MSC_RDPS_DewPointDepression_IsbL-0020_RLatLon0.09_PT083H.grib2 2026-05-08 09:04 193
20260508T06Z_MSC_RDPS_DewPointDepression_IsbL-0030_RLatLon0.09_PT083H.grib2 2026-05-08 09:04 193
20260508T06Z_MSC_RDPS_DewPointDepression_IsbL-0050_RLatLon0.09_PT083H.grib2 2026-05-08 09:04 108K
20260508T06Z_MSC_RDPS_DewPointDepression_IsbL-0100_RLatLon0.09_PT083H.grib2 2026-05-08 09:04 111K
20260508T06Z_MSC_RDPS_DewPointDepression_IsbL-0150_RLatLon0.09_PT083H.grib2 2026-05-08 09:04 145K
20260508T06Z_MSC_RDPS_DewPointDepression_IsbL-0175_RLatLon0.09_PT083H.grib2 2026-05-08 09:04 165K
20260508T06Z_MSC_RDPS_DewPointDepression_IsbL-0200_RLatLon0.09_PT083H.grib2 2026-05-08 09:04 215K
20260508T06Z_MSC_RDPS_DewPointDepression_IsbL-0225_RLatLon0.09_PT083H.grib2 2026-05-08 09:04 261K
20260508T06Z_MSC_RDPS_DewPointDepression_IsbL-0250_RLatLon0.09_PT083H.grib2 2026-05-08 09:04 299K
20260508T06Z_MSC_RDPS_DewPointDepression_IsbL-0275_RLatLon0.09_PT083H.grib2 2026-05-08 09:04 307K
20260508T06Z_MSC_RDPS_DewPointDepression_IsbL-0300_RLatLon0.09_PT083H.grib2 2026-05-08 09:04 325K
20260508T06Z_MSC_RDPS_DewPointDepression_IsbL-0350_RLatLon0.09_PT083H.grib2 2026-05-08 09:04 332K
20260508T06Z_MSC_RDPS_DewPointDepression_IsbL-0400_RLatLon0.09_PT083H.grib2 2026-05-08 09:04 348K
20260508T06Z_MSC_RDPS_DewPointDepression_IsbL-0450_RLatLon0.09_PT083H.grib2 2026-05-08 09:04 356K
20260508T06Z_MSC_RDPS_DewPointDepression_IsbL-0500_RLatLon0.09_PT083H.grib2 2026-05-08 09:04 361K
20260508T06Z_MSC_RDPS_DewPointDepression_IsbL-0550_RLatLon0.09_PT083H.grib2 2026-05-08 09:04 370K
20260508T06Z_MSC_RDPS_DewPointDepression_IsbL-0600_RLatLon0.09_PT083H.grib2 2026-05-08 09:04 382K
20260508T06Z_MSC_RDPS_DewPointDepression_IsbL-0650_RLatLon0.09_PT083H.grib2 2026-05-08 09:04 389K
20260508T06Z_MSC_RDPS_DewPointDepression_IsbL-0700_RLatLon0.09_PT083H.grib2 2026-05-08 09:04 400K
20260508T06Z_MSC_RDPS_DewPointDepression_IsbL-0750_RLatLon0.09_PT083H.grib2 2026-05-08 09:04 422K
20260508T06Z_MSC_RDPS_DewPointDepression_IsbL-0800_RLatLon0.09_PT083H.grib2 2026-05-08 09:04 464K
20260508T06Z_MSC_RDPS_DewPointDepression_IsbL-0850_RLatLon0.09_PT083H.grib2 2026-05-08 09:04 476K
20260508T06Z_MSC_RDPS_DewPointDepression_IsbL-0875_RLatLon0.09_PT083H.grib2 2026-05-08 09:04 468K
20260508T06Z_MSC_RDPS_DewPointDepression_IsbL-0900_RLatLon0.09_PT083H.grib2 2026-05-08 09:04 457K
20260508T06Z_MSC_RDPS_DewPointDepression_IsbL-0925_RLatLon0.09_PT083H.grib2 2026-05-08 09:04 447K
20260508T06Z_MSC_RDPS_DewPointDepression_IsbL-0950_RLatLon0.09_PT083H.grib2 2026-05-08 09:04 447K
20260508T06Z_MSC_RDPS_DewPointDepression_IsbL-0970_RLatLon0.09_PT083H.grib2 2026-05-08 09:04 445K
20260508T06Z_MSC_RDPS_DewPointDepression_IsbL-0985_RLatLon0.09_PT083H.grib2 2026-05-08 09:04 442K
20260508T06Z_MSC_RDPS_DewPointDepression_IsbL-1000_RLatLon0.09_PT083H.grib2 2026-05-08 09:04 434K
20260508T06Z_MSC_RDPS_DewPointDepression_IsbL-1015_RLatLon0.09_PT083H.grib2 2026-05-08 09:04 423K
20260508T06Z_MSC_RDPS_DewPoint_AGL-2m_RLatLon0.09_PT083H.grib2 2026-05-08 09:04 402K
20260508T06Z_MSC_RDPS_DownwardLongwaveRadiationFlux-Accum_Sfc_RLatLon0.09_PT083H.grib2 2026-05-08 09:04 443K
20260508T06Z_MSC_RDPS_DownwardShortwaveRadiationFlux-Accum_NTAtm_RLatLon0.09_PT083H.grib2 2026-05-08 09:04 114K
20260508T06Z_MSC_RDPS_DownwardShortwaveRadiationFlux-Accum_Sfc_RLatLon0.09_PT083H.grib2 2026-05-08 09:04 652K
20260508T06Z_MSC_RDPS_FreezingRain-Accum1h_Sfc_RLatLon0.09_PT083H.grib2 2026-05-08 09:04 36K
20260508T06Z_MSC_RDPS_FreezingRain-Accum_Sfc_RLatLon0.09_PT083H.grib2 2026-05-08 09:04 195K
20260508T06Z_MSC_RDPS_GeopotentialHeight_IsbL-0001_RLatLon0.09_PT083H.grib2 2026-05-08 09:04 251K
20260508T06Z_MSC_RDPS_GeopotentialHeight_IsbL-0005_RLatLon0.09_PT083H.grib2 2026-05-08 09:04 342K
20260508T06Z_MSC_RDPS_GeopotentialHeight_IsbL-0010_RLatLon0.09_PT083H.grib2 2026-05-08 09:04 311K
20260508T06Z_MSC_RDPS_GeopotentialHeight_IsbL-0020_RLatLon0.09_PT083H.grib2 2026-05-08 09:04 311K
20260508T06Z_MSC_RDPS_GeopotentialHeight_IsbL-0030_RLatLon0.09_PT083H.grib2 2026-05-08 09:04 315K
20260508T06Z_MSC_RDPS_GeopotentialHeight_IsbL-0050_RLatLon0.09_PT083H.grib2 2026-05-08 09:04 313K
20260508T06Z_MSC_RDPS_GeopotentialHeight_IsbL-0100_RLatLon0.09_PT083H.grib2 2026-05-08 09:04 285K
20260508T06Z_MSC_RDPS_GeopotentialHeight_IsbL-0150_RLatLon0.09_PT083H.grib2 2026-05-08 09:04 227K
20260508T06Z_MSC_RDPS_GeopotentialHeight_IsbL-0175_RLatLon0.09_PT083H.grib2 2026-05-08 09:04 229K
20260508T06Z_MSC_RDPS_GeopotentialHeight_IsbL-0200_RLatLon0.09_PT083H.grib2 2026-05-08 09:04 231K
20260508T06Z_MSC_RDPS_GeopotentialHeight_IsbL-0225_RLatLon0.09_PT083H.grib2 2026-05-08 09:04 233K
20260508T06Z_MSC_RDPS_GeopotentialHeight_IsbL-0250_RLatLon0.09_PT083H.grib2 2026-05-08 09:04 235K
20260508T06Z_MSC_RDPS_GeopotentialHeight_IsbL-0275_RLatLon0.09_PT083H.grib2 2026-05-08 09:04 235K
20260508T06Z_MSC_RDPS_GeopotentialHeight_IsbL-0300_RLatLon0.09_PT083H.grib2 2026-05-08 09:04 235K
20260508T06Z_MSC_RDPS_GeopotentialHeight_IsbL-0350_RLatLon0.09_PT083H.grib2 2026-05-08 09:04 231K
20260508T06Z_MSC_RDPS_GeopotentialHeight_IsbL-0400_RLatLon0.09_PT083H.grib2 2026-05-08 09:04 300K
20260508T06Z_MSC_RDPS_GeopotentialHeight_IsbL-0450_RLatLon0.09_PT083H.grib2 2026-05-08 09:04 295K
20260508T06Z_MSC_RDPS_GeopotentialHeight_IsbL-0500_RLatLon0.09_PT083H.grib2 2026-05-08 09:04 289K
20260508T06Z_MSC_RDPS_GeopotentialHeight_IsbL-0550_RLatLon0.09_PT083H.grib2 2026-05-08 09:04 286K
20260508T06Z_MSC_RDPS_GeopotentialHeight_IsbL-0600_RLatLon0.09_PT083H.grib2 2026-05-08 09:04 281K
20260508T06Z_MSC_RDPS_GeopotentialHeight_IsbL-0650_RLatLon0.09_PT083H.grib2 2026-05-08 09:04 254K
20260508T06Z_MSC_RDPS_GeopotentialHeight_IsbL-0700_RLatLon0.09_PT083H.grib2 2026-05-08 09:04 254K
20260508T06Z_MSC_RDPS_GeopotentialHeight_IsbL-0750_RLatLon0.09_PT083H.grib2 2026-05-08 09:04 257K
20260508T06Z_MSC_RDPS_GeopotentialHeight_IsbL-0800_RLatLon0.09_PT083H.grib2 2026-05-08 09:04 351K
20260508T06Z_MSC_RDPS_GeopotentialHeight_IsbL-0850_RLatLon0.09_PT083H.grib2 2026-05-08 09:04 360K
20260508T06Z_MSC_RDPS_GeopotentialHeight_IsbL-0875_RLatLon0.09_PT083H.grib2 2026-05-08 09:04 362K
20260508T06Z_MSC_RDPS_GeopotentialHeight_IsbL-0900_RLatLon0.09_PT083H.grib2 2026-05-08 09:04 366K
20260508T06Z_MSC_RDPS_GeopotentialHeight_IsbL-0925_RLatLon0.09_PT083H.grib2 2026-05-08 09:04 367K
20260508T06Z_MSC_RDPS_GeopotentialHeight_IsbL-0950_RLatLon0.09_PT083H.grib2 2026-05-08 09:04 372K
20260508T06Z_MSC_RDPS_GeopotentialHeight_IsbL-0970_RLatLon0.09_PT083H.grib2 2026-05-08 09:04 379K
20260508T06Z_MSC_RDPS_GeopotentialHeight_IsbL-0985_RLatLon0.09_PT083H.grib2 2026-05-08 09:04 389K
20260508T06Z_MSC_RDPS_GeopotentialHeight_IsbL-1000_RLatLon0.09_PT083H.grib2 2026-05-08 09:04 402K
20260508T06Z_MSC_RDPS_GeopotentialHeight_IsbL-1015_RLatLon0.09_PT083H.grib2 2026-05-08 09:04 421K
20260508T06Z_MSC_RDPS_HighLowPressure_MSL_RLatLon0.09_PT083H.json 2026-05-08 08:57 23K
20260508T06Z_MSC_RDPS_Humidex_Sfc_RLatLon0.09_PT083H.grib2 2026-05-08 09:04 2.4M
20260508T06Z_MSC_RDPS_IcePellets-Accum1h_Sfc_RLatLon0.09_PT083H.grib2 2026-05-08 09:04 12K
20260508T06Z_MSC_RDPS_IcePellets-Accum_Sfc_RLatLon0.09_PT083H.grib2 2026-05-08 09:04 44K
20260508T06Z_MSC_RDPS_KIndex_Sfc_RLatLon0.09_PT083H.grib2 2026-05-08 09:04 2.5M
20260508T06Z_MSC_RDPS_LatentHeatNetFlux_Sfc_RLatLon0.09_PT083H.grib2 2026-05-08 09:04 319K
20260508T06Z_MSC_RDPS_LiftedIndex-MU-VT_IsbL-0500_RLatLon0.09_PT083H.grib2 2026-05-08 09:04 2.4M
20260508T06Z_MSC_RDPS_NetLongwaveRadiationFlux-Accum_Sfc_RLatLon0.09_PT083H.grib2 2026-05-08 09:04 495K
20260508T06Z_MSC_RDPS_NetShortwaveRadiationFlux-Accum_Sfc_RLatLon0.09_PT083H.grib2 2026-05-08 09:04 653K
20260508T06Z_MSC_RDPS_PlanetaryBoundaryLayerHeight_Sfc_RLatLon0.09_PT083H.grib2 2026-05-08 09:04 1.0M
20260508T06Z_MSC_RDPS_Precip-Accum1h_Sfc_RLatLon0.09_PT083H.grib2 2026-05-08 09:04 1.4M
20260508T06Z_MSC_RDPS_Precip-Accum_Sfc_RLatLon0.09_PT083H.grib2 2026-05-08 09:04 2.1M
20260508T06Z_MSC_RDPS_PrecipRate_Sfc_RLatLon0.09_PT083H.grib2 2026-05-08 09:04 200K
20260508T06Z_MSC_RDPS_PrecipType-Instant_Sfc_RLatLon0.09_PT083H.grib2 2026-05-08 09:04 658K
20260508T06Z_MSC_RDPS_Pressure-Trend3h_Sfc_RLatLon0.09_PT083H.grib2 2026-05-08 09:04 1.2M
20260508T06Z_MSC_RDPS_Pressure_MSL_RLatLon0.09_PT083H.grib2 2026-05-08 09:04 330K
20260508T06Z_MSC_RDPS_Pressure_PVU-1.5_RLatLon0.09_PT083H.grib2 2026-05-08 09:04 2.5M
20260508T06Z_MSC_RDPS_Pressure_PVU-1_RLatLon0.09_PT083H.grib2 2026-05-08 09:04 2.4M
20260508T06Z_MSC_RDPS_Pressure_PVU-2_RLatLon0.09_PT083H.grib2 2026-05-08 09:04 2.4M
20260508T06Z_MSC_RDPS_Pressure_Sfc_RLatLon0.09_PT083H.grib2 2026-05-08 09:04 499K
20260508T06Z_MSC_RDPS_RadiativeTemp_Sfc_RLatLon0.09_PT083H.grib2 2026-05-08 09:04 330K
20260508T06Z_MSC_RDPS_Rain-Accum1h_Sfc_RLatLon0.09_PT083H.grib2 2026-05-08 09:04 732K
20260508T06Z_MSC_RDPS_Rain-Accum_Sfc_RLatLon0.09_PT083H.grib2 2026-05-08 09:04 1.8M
20260508T06Z_MSC_RDPS_RelativeHumidity_AGL-2m_RLatLon0.09_PT083H.grib2 2026-05-08 09:04 1.0M
20260508T06Z_MSC_RDPS_RelativeHumidity_IsbL-0010_RLatLon0.09_PT083H.grib2 2026-05-08 09:04 552K
20260508T06Z_MSC_RDPS_RelativeHumidity_IsbL-0020_RLatLon0.09_PT083H.grib2 2026-05-08 09:04 616K
20260508T06Z_MSC_RDPS_RelativeHumidity_IsbL-0030_RLatLon0.09_PT083H.grib2 2026-05-08 09:04 620K
20260508T06Z_MSC_RDPS_RelativeHumidity_IsbL-0050_RLatLon0.09_PT083H.grib2 2026-05-08 09:04 355K
20260508T06Z_MSC_RDPS_RelativeHumidity_IsbL-0100_RLatLon0.09_PT083H.grib2 2026-05-08 09:04 273K
20260508T06Z_MSC_RDPS_RelativeHumidity_IsbL-0150_RLatLon0.09_PT083H.grib2 2026-05-08 09:04 416K
20260508T06Z_MSC_RDPS_RelativeHumidity_IsbL-0175_RLatLon0.09_PT083H.grib2 2026-05-08 09:04 469K
20260508T06Z_MSC_RDPS_RelativeHumidity_IsbL-0200_RLatLon0.09_PT083H.grib2 2026-05-08 09:04 538K
20260508T06Z_MSC_RDPS_RelativeHumidity_IsbL-0225_RLatLon0.09_PT083H.grib2 2026-05-08 09:04 617K
20260508T06Z_MSC_RDPS_RelativeHumidity_IsbL-0250_RLatLon0.09_PT083H.grib2 2026-05-08 09:04 698K
20260508T06Z_MSC_RDPS_RelativeHumidity_IsbL-0275_RLatLon0.09_PT083H.grib2 2026-05-08 09:04 726K
20260508T06Z_MSC_RDPS_RelativeHumidity_IsbL-0300_RLatLon0.09_PT083H.grib2 2026-05-08 09:04 770K
20260508T06Z_MSC_RDPS_RelativeHumidity_IsbL-0350_RLatLon0.09_PT083H.grib2 2026-05-08 09:04 781K
20260508T06Z_MSC_RDPS_RelativeHumidity_IsbL-0400_RLatLon0.09_PT083H.grib2 2026-05-08 09:04 804K
20260508T06Z_MSC_RDPS_RelativeHumidity_IsbL-0450_RLatLon0.09_PT083H.grib2 2026-05-08 09:04 815K
20260508T06Z_MSC_RDPS_RelativeHumidity_IsbL-0500_RLatLon0.09_PT083H.grib2 2026-05-08 09:04 831K
20260508T06Z_MSC_RDPS_RelativeHumidity_IsbL-0550_RLatLon0.09_PT083H.grib2 2026-05-08 09:04 846K
20260508T06Z_MSC_RDPS_RelativeHumidity_IsbL-0600_RLatLon0.09_PT083H.grib2 2026-05-08 09:04 859K
20260508T06Z_MSC_RDPS_RelativeHumidity_IsbL-0650_RLatLon0.09_PT083H.grib2 2026-05-08 09:04 872K
20260508T06Z_MSC_RDPS_RelativeHumidity_IsbL-0700_RLatLon0.09_PT083H.grib2 2026-05-08 09:04 903K
20260508T06Z_MSC_RDPS_RelativeHumidity_IsbL-0750_RLatLon0.09_PT083H.grib2 2026-05-08 09:04 944K
20260508T06Z_MSC_RDPS_RelativeHumidity_IsbL-0800_RLatLon0.09_PT083H.grib2 2026-05-08 09:04 1.0M
20260508T06Z_MSC_RDPS_RelativeHumidity_IsbL-0850_RLatLon0.09_PT083H.grib2 2026-05-08 09:04 1.0M
20260508T06Z_MSC_RDPS_RelativeHumidity_IsbL-0875_RLatLon0.09_PT083H.grib2 2026-05-08 09:04 1.1M
20260508T06Z_MSC_RDPS_RelativeHumidity_IsbL-0900_RLatLon0.09_PT083H.grib2 2026-05-08 09:04 1.1M
20260508T06Z_MSC_RDPS_RelativeHumidity_IsbL-0925_RLatLon0.09_PT083H.grib2 2026-05-08 09:04 1.1M
20260508T06Z_MSC_RDPS_RelativeHumidity_IsbL-0950_RLatLon0.09_PT083H.grib2 2026-05-08 09:04 1.1M
20260508T06Z_MSC_RDPS_RelativeHumidity_IsbL-0970_RLatLon0.09_PT083H.grib2 2026-05-08 09:04 1.1M
20260508T06Z_MSC_RDPS_RelativeHumidity_IsbL-0985_RLatLon0.09_PT083H.grib2 2026-05-08 09:04 1.1M
20260508T06Z_MSC_RDPS_RelativeHumidity_IsbL-1000_RLatLon0.09_PT083H.grib2 2026-05-08 09:04 1.0M
20260508T06Z_MSC_RDPS_RelativeHumidity_IsbL-1015_RLatLon0.09_PT083H.grib2 2026-05-08 09:04 1.0M
20260508T06Z_MSC_RDPS_Runoff-Accum_Sfc_RLatLon0.09_PT083H.grib2 2026-05-08 09:04 53K
20260508T06Z_MSC_RDPS_SWEATIndex_Sfc_RLatLon0.09_PT083H.grib2 2026-05-08 09:04 2.5M
20260508T06Z_MSC_RDPS_SeeingIndex_EAtm_RLatLon0.09_PT083H.grib2 2026-05-08 09:04 1.1M
20260508T06Z_MSC_RDPS_SensibleHeatNetFlux_Sfc_RLatLon0.09_PT083H.grib2 2026-05-08 09:04 282K
20260508T06Z_MSC_RDPS_ShowalterIndex_IsbL-0500_RLatLon0.09_PT083H.grib2 2026-05-08 09:04 2.6M
20260508T06Z_MSC_RDPS_SkyTransparencyIndex_EAtm_RLatLon0.09_PT083H.grib2 2026-05-08 09:04 695K
20260508T06Z_MSC_RDPS_Snow-Accum1h_Sfc_RLatLon0.09_PT083H.grib2 2026-05-08 09:04 469K
20260508T06Z_MSC_RDPS_Snow-Accum_Sfc_RLatLon0.09_PT083H.grib2 2026-05-08 09:04 696K
20260508T06Z_MSC_RDPS_SnowDensity_Sfc_RLatLon0.09_PT083H.grib2 2026-05-08 09:04 171K
20260508T06Z_MSC_RDPS_SnowDepth_Sfc_RLatLon0.09_PT083H.grib2 2026-05-08 09:04 617K
20260508T06Z_MSC_RDPS_SoilTemp_DBS-0to10cm_RLatLon0.09_PT083H.grib2 2026-05-08 09:04 243K
20260508T06Z_MSC_RDPS_SoilTemp_Sfc_RLatLon0.09_PT083H.grib2 2026-05-08 09:04 299K
20260508T06Z_MSC_RDPS_SoilVolumetricIceContent_Sfc_RLatLon0.09_PT083H.grib2 2026-05-08 09:04 141K
20260508T06Z_MSC_RDPS_SoilVolumetricWaterContent_DBS-0to10cm_RLatLon0.09_PT083H.grib2 2026-05-08 09:04 295K
20260508T06Z_MSC_RDPS_SoilVolumetricWaterContent_DBS-0to1cm_RLatLon0.09_PT083H.grib2 2026-05-08 09:04 345K
20260508T06Z_MSC_RDPS_SpecificHumidity_AGL-120m_RLatLon0.09_PT083H.grib2 2026-05-08 09:04 515K
20260508T06Z_MSC_RDPS_SpecificHumidity_AGL-2m_RLatLon0.09_PT083H.grib2 2026-05-08 09:04 688K
20260508T06Z_MSC_RDPS_SpecificHumidity_AGL-40m_RLatLon0.09_PT083H.grib2 2026-05-08 09:04 519K
20260508T06Z_MSC_RDPS_SpecificHumidity_AGL-80m_RLatLon0.09_PT083H.grib2 2026-05-08 09:04 516K
20260508T06Z_MSC_RDPS_SpecificHumidity_IsbL-0001_RLatLon0.09_PT083H.grib2 2026-05-08 09:04 366K
20260508T06Z_MSC_RDPS_SpecificHumidity_IsbL-0005_RLatLon0.09_PT083H.grib2 2026-05-08 09:04 355K
20260508T06Z_MSC_RDPS_SpecificHumidity_IsbL-0010_RLatLon0.09_PT083H.grib2 2026-05-08 09:04 384K
20260508T06Z_MSC_RDPS_SpecificHumidity_IsbL-0020_RLatLon0.09_PT083H.grib2 2026-05-08 09:04 447K
20260508T06Z_MSC_RDPS_SpecificHumidity_IsbL-0030_RLatLon0.09_PT083H.grib2 2026-05-08 09:04 360K
20260508T06Z_MSC_RDPS_SpecificHumidity_IsbL-0050_RLatLon0.09_PT083H.grib2 2026-05-08 09:04 358K
20260508T06Z_MSC_RDPS_SpecificHumidity_IsbL-0100_RLatLon0.09_PT083H.grib2 2026-05-08 09:04 396K
20260508T06Z_MSC_RDPS_SpecificHumidity_IsbL-0150_RLatLon0.09_PT083H.grib2 2026-05-08 09:04 457K
20260508T06Z_MSC_RDPS_SpecificHumidity_IsbL-0175_RLatLon0.09_PT083H.grib2 2026-05-08 09:04 433K
20260508T06Z_MSC_RDPS_SpecificHumidity_IsbL-0200_RLatLon0.09_PT083H.grib2 2026-05-08 09:04 452K
20260508T06Z_MSC_RDPS_SpecificHumidity_IsbL-0225_RLatLon0.09_PT083H.grib2 2026-05-08 09:04 461K
20260508T06Z_MSC_RDPS_SpecificHumidity_IsbL-0250_RLatLon0.09_PT083H.grib2 2026-05-08 09:04 570K
20260508T06Z_MSC_RDPS_SpecificHumidity_IsbL-0275_RLatLon0.09_PT083H.grib2 2026-05-08 09:04 486K
20260508T06Z_MSC_RDPS_SpecificHumidity_IsbL-0300_RLatLon0.09_PT083H.grib2 2026-05-08 09:04 561K
20260508T06Z_MSC_RDPS_SpecificHumidity_IsbL-0350_RLatLon0.09_PT083H.grib2 2026-05-08 09:04 551K
20260508T06Z_MSC_RDPS_SpecificHumidity_IsbL-0400_RLatLon0.09_PT083H.grib2 2026-05-08 09:04 540K
20260508T06Z_MSC_RDPS_SpecificHumidity_IsbL-0450_RLatLon0.09_PT083H.grib2 2026-05-08 09:04 597K
20260508T06Z_MSC_RDPS_SpecificHumidity_IsbL-0500_RLatLon0.09_PT083H.grib2 2026-05-08 09:04 533K
20260508T06Z_MSC_RDPS_SpecificHumidity_IsbL-0550_RLatLon0.09_PT083H.grib2 2026-05-08 09:04 605K
20260508T06Z_MSC_RDPS_SpecificHumidity_IsbL-0600_RLatLon0.09_PT083H.grib2 2026-05-08 09:04 661K
20260508T06Z_MSC_RDPS_SpecificHumidity_IsbL-0650_RLatLon0.09_PT083H.grib2 2026-05-08 09:04 577K
20260508T06Z_MSC_RDPS_SpecificHumidity_IsbL-0700_RLatLon0.09_PT083H.grib2 2026-05-08 09:04 624K
20260508T06Z_MSC_RDPS_SpecificHumidity_IsbL-0750_RLatLon0.09_PT083H.grib2 2026-05-08 09:04 682K
20260508T06Z_MSC_RDPS_SpecificHumidity_IsbL-0800_RLatLon0.09_PT083H.grib2 2026-05-08 09:04 774K
20260508T06Z_MSC_RDPS_SpecificHumidity_IsbL-0850_RLatLon0.09_PT083H.grib2 2026-05-08 09:04 833K
20260508T06Z_MSC_RDPS_SpecificHumidity_IsbL-0875_RLatLon0.09_PT083H.grib2 2026-05-08 09:04 847K
20260508T06Z_MSC_RDPS_SpecificHumidity_IsbL-0900_RLatLon0.09_PT083H.grib2 2026-05-08 09:04 716K
20260508T06Z_MSC_RDPS_SpecificHumidity_IsbL-0925_RLatLon0.09_PT083H.grib2 2026-05-08 09:04 721K
20260508T06Z_MSC_RDPS_SpecificHumidity_IsbL-0950_RLatLon0.09_PT083H.grib2 2026-05-08 09:04 730K
20260508T06Z_MSC_RDPS_SpecificHumidity_IsbL-0970_RLatLon0.09_PT083H.grib2 2026-05-08 09:04 729K
20260508T06Z_MSC_RDPS_SpecificHumidity_IsbL-0985_RLatLon0.09_PT083H.grib2 2026-05-08 09:04 723K
20260508T06Z_MSC_RDPS_SpecificHumidity_IsbL-1000_RLatLon0.09_PT083H.grib2 2026-05-08 09:04 715K
20260508T06Z_MSC_RDPS_SpecificHumidity_IsbL-1015_RLatLon0.09_PT083H.grib2 2026-05-08 09:04 704K
20260508T06Z_MSC_RDPS_SpecificHumidity_Sfc_RLatLon0.09_PT083H.grib2 2026-05-08 09:04 354K
20260508T06Z_MSC_RDPS_StormRelativeHelicity_EtaL-10000_RLatLon0.09_PT083H.grib2 2026-05-08 09:04 1.1M
20260508T06Z_MSC_RDPS_StormSeverityIndex_EtaL-10000_RLatLon0.09_PT083H.grib2 2026-05-08 09:04 1.2M
20260508T06Z_MSC_RDPS_Thickness_IsbL-0850to0700_RLatLon0.09_PT083H.grib2 2026-05-08 09:04 250K
20260508T06Z_MSC_RDPS_Thickness_IsbL-1000to0500_RLatLon0.09_PT083H.grib2 2026-05-08 09:04 197K
20260508T06Z_MSC_RDPS_Thickness_IsbL-1000to0850_RLatLon0.09_PT083H.grib2 2026-05-08 09:04 267K
20260508T06Z_MSC_RDPS_TotalCloudCover_Sfc_RLatLon0.09_PT083H.grib2 2026-05-08 09:04 668K
20260508T06Z_MSC_RDPS_TotalTotalsIndex_Sfc_RLatLon0.09_PT083H.grib2 2026-05-08 09:04 2.5M
20260508T06Z_MSC_RDPS_UVIndex-ClearSky_Sfc_RLatLon0.09_PT083H.grib2 2026-05-08 09:04 227K
20260508T06Z_MSC_RDPS_UVIndex_Sfc_RLatLon0.09_PT083H.grib2 2026-05-08 09:04 549K
20260508T06Z_MSC_RDPS_UpwardLongwaveRadiationFlux_NTAtm_RLatLon0.09_PT083H.grib2 2026-05-08 09:04 383K
20260508T06Z_MSC_RDPS_UpwardShortwaveRadiationFlux_NTAtm_RLatLon0.09_PT083H.grib2 2026-05-08 09:04 575K
20260508T06Z_MSC_RDPS_VerticalVelocity_IsbL-0250_RLatLon0.09_PT083H.grib2 2026-05-08 09:04 565K
20260508T06Z_MSC_RDPS_VerticalVelocity_IsbL-0500_RLatLon0.09_PT083H.grib2 2026-05-08 09:04 539K
20260508T06Z_MSC_RDPS_VerticalVelocity_IsbL-0700_RLatLon0.09_PT083H.grib2 2026-05-08 09:04 598K
20260508T06Z_MSC_RDPS_VerticalVelocity_IsbL-0850_RLatLon0.09_PT083H.grib2 2026-05-08 09:04 663K
20260508T06Z_MSC_RDPS_VerticalWindShear_EtaL-6500_RLatLon0.09_PT083H.grib2 2026-05-08 09:04 1.2M
20260508T06Z_MSC_RDPS_WindChill_Sfc_RLatLon0.09_PT083H.grib2 2026-05-08 09:04 1.2M
20260508T06Z_MSC_RDPS_WindDir_AGL-10m_RLatLon0.09_PT083H.grib2 2026-05-08 09:04 1.0M
20260508T06Z_MSC_RDPS_WindDir_AGL-120m_RLatLon0.09_PT083H.grib2 2026-05-08 09:04 631K
20260508T06Z_MSC_RDPS_WindDir_AGL-40m_RLatLon0.09_PT083H.grib2 2026-05-08 09:04 652K
20260508T06Z_MSC_RDPS_WindDir_AGL-80m_RLatLon0.09_PT083H.grib2 2026-05-08 09:04 639K
20260508T06Z_MSC_RDPS_WindDir_IsbL-0001_RLatLon0.09_PT083H.grib2 2026-05-08 09:04 266K
20260508T06Z_MSC_RDPS_WindDir_IsbL-0005_RLatLon0.09_PT083H.grib2 2026-05-08 09:04 380K
20260508T06Z_MSC_RDPS_WindDir_IsbL-0010_RLatLon0.09_PT083H.grib2 2026-05-08 09:04 391K
20260508T06Z_MSC_RDPS_WindDir_IsbL-0020_RLatLon0.09_PT083H.grib2 2026-05-08 09:04 426K
20260508T06Z_MSC_RDPS_WindDir_IsbL-0030_RLatLon0.09_PT083H.grib2 2026-05-08 09:04 420K
20260508T06Z_MSC_RDPS_WindDir_IsbL-0050_RLatLon0.09_PT083H.grib2 2026-05-08 09:04 454K
20260508T06Z_MSC_RDPS_WindDir_IsbL-0100_RLatLon0.09_PT083H.grib2 2026-05-08 09:04 426K
20260508T06Z_MSC_RDPS_WindDir_IsbL-0150_RLatLon0.09_PT083H.grib2 2026-05-08 09:04 416K
20260508T06Z_MSC_RDPS_WindDir_IsbL-0175_RLatLon0.09_PT083H.grib2 2026-05-08 09:04 441K
20260508T06Z_MSC_RDPS_WindDir_IsbL-0200_RLatLon0.09_PT083H.grib2 2026-05-08 09:04 455K
20260508T06Z_MSC_RDPS_WindDir_IsbL-0225_RLatLon0.09_PT083H.grib2 2026-05-08 09:04 458K
20260508T06Z_MSC_RDPS_WindDir_IsbL-0250_RLatLon0.09_PT083H.grib2 2026-05-08 09:04 455K
20260508T06Z_MSC_RDPS_WindDir_IsbL-0275_RLatLon0.09_PT083H.grib2 2026-05-08 09:04 482K
20260508T06Z_MSC_RDPS_WindDir_IsbL-0300_RLatLon0.09_PT083H.grib2 2026-05-08 09:04 481K
20260508T06Z_MSC_RDPS_WindDir_IsbL-0350_RLatLon0.09_PT083H.grib2 2026-05-08 09:04 499K
20260508T06Z_MSC_RDPS_WindDir_IsbL-0400_RLatLon0.09_PT083H.grib2 2026-05-08 09:04 522K
20260508T06Z_MSC_RDPS_WindDir_IsbL-0450_RLatLon0.09_PT083H.grib2 2026-05-08 09:04 545K
20260508T06Z_MSC_RDPS_WindDir_IsbL-0500_RLatLon0.09_PT083H.grib2 2026-05-08 09:04 569K
20260508T06Z_MSC_RDPS_WindDir_IsbL-0550_RLatLon0.09_PT083H.grib2 2026-05-08 09:04 578K
20260508T06Z_MSC_RDPS_WindDir_IsbL-0600_RLatLon0.09_PT083H.grib2 2026-05-08 09:04 596K
20260508T06Z_MSC_RDPS_WindDir_IsbL-0650_RLatLon0.09_PT083H.grib2 2026-05-08 09:04 628K
20260508T06Z_MSC_RDPS_WindDir_IsbL-0700_RLatLon0.09_PT083H.grib2 2026-05-08 09:04 668K
20260508T06Z_MSC_RDPS_WindDir_IsbL-0750_RLatLon0.09_PT083H.grib2 2026-05-08 09:04 714K
20260508T06Z_MSC_RDPS_WindDir_IsbL-0800_RLatLon0.09_PT083H.grib2 2026-05-08 09:04 792K
20260508T06Z_MSC_RDPS_WindDir_IsbL-0850_RLatLon0.09_PT083H.grib2 2026-05-08 09:04 861K
20260508T06Z_MSC_RDPS_WindDir_IsbL-0875_RLatLon0.09_PT083H.grib2 2026-05-08 09:04 884K
20260508T06Z_MSC_RDPS_WindDir_IsbL-0900_RLatLon0.09_PT083H.grib2 2026-05-08 09:04 905K
20260508T06Z_MSC_RDPS_WindDir_IsbL-0925_RLatLon0.09_PT083H.grib2 2026-05-08 09:04 922K
20260508T06Z_MSC_RDPS_WindDir_IsbL-0950_RLatLon0.09_PT083H.grib2 2026-05-08 09:04 928K
20260508T06Z_MSC_RDPS_WindDir_IsbL-0970_RLatLon0.09_PT083H.grib2 2026-05-08 09:04 933K
20260508T06Z_MSC_RDPS_WindDir_IsbL-0985_RLatLon0.09_PT083H.grib2 2026-05-08 09:04 943K
20260508T06Z_MSC_RDPS_WindDir_IsbL-1000_RLatLon0.09_PT083H.grib2 2026-05-08 09:04 962K
20260508T06Z_MSC_RDPS_WindDir_IsbL-1015_RLatLon0.09_PT083H.grib2 2026-05-08 09:04 1.0M
20260508T06Z_MSC_RDPS_WindGust-Max_AGL-10m_RLatLon0.09_PT083H.grib2 2026-05-08 09:04 1.0M
20260508T06Z_MSC_RDPS_WindGust-Min_AGL-10m_RLatLon0.09_PT083H.grib2 2026-05-08 09:04 1.0M
20260508T06Z_MSC_RDPS_WindGust_AGL-10m_RLatLon0.09_PT083H.grib2 2026-05-08 09:04 1.0M
20260508T06Z_MSC_RDPS_WindSpeed_AGL-10m_RLatLon0.09_PT083H.grib2 2026-05-08 09:04 852K
20260508T06Z_MSC_RDPS_WindSpeed_AGL-120m_RLatLon0.09_PT083H.grib2 2026-05-08 09:04 543K
20260508T06Z_MSC_RDPS_WindSpeed_AGL-40m_RLatLon0.09_PT083H.grib2 2026-05-08 09:04 548K
20260508T06Z_MSC_RDPS_WindSpeed_AGL-80m_RLatLon0.09_PT083H.grib2 2026-05-08 09:04 545K
20260508T06Z_MSC_RDPS_WindSpeed_IsbL-0001_RLatLon0.09_PT083H.grib2 2026-05-08 09:04 255K
20260508T06Z_MSC_RDPS_WindSpeed_IsbL-0005_RLatLon0.09_PT083H.grib2 2026-05-08 09:04 345K
20260508T06Z_MSC_RDPS_WindSpeed_IsbL-0010_RLatLon0.09_PT083H.grib2 2026-05-08 09:04 364K
20260508T06Z_MSC_RDPS_WindSpeed_IsbL-0020_RLatLon0.09_PT083H.grib2 2026-05-08 09:04 327K
20260508T06Z_MSC_RDPS_WindSpeed_IsbL-0030_RLatLon0.09_PT083H.grib2 2026-05-08 09:04 322K
20260508T06Z_MSC_RDPS_WindSpeed_IsbL-0050_RLatLon0.09_PT083H.grib2 2026-05-08 09:04 449K
20260508T06Z_MSC_RDPS_WindSpeed_IsbL-0100_RLatLon0.09_PT083H.grib2 2026-05-08 09:04 470K
20260508T06Z_MSC_RDPS_WindSpeed_IsbL-0150_RLatLon0.09_PT083H.grib2 2026-05-08 09:04 368K
20260508T06Z_MSC_RDPS_WindSpeed_IsbL-0175_RLatLon0.09_PT083H.grib2 2026-05-08 09:04 395K
20260508T06Z_MSC_RDPS_WindSpeed_IsbL-0200_RLatLon0.09_PT083H.grib2 2026-05-08 09:04 432K
20260508T06Z_MSC_RDPS_WindSpeed_IsbL-0225_RLatLon0.09_PT083H.grib2 2026-05-08 09:04 443K
20260508T06Z_MSC_RDPS_WindSpeed_IsbL-0250_RLatLon0.09_PT083H.grib2 2026-05-08 09:04 447K
20260508T06Z_MSC_RDPS_WindSpeed_IsbL-0275_RLatLon0.09_PT083H.grib2 2026-05-08 09:04 468K
20260508T06Z_MSC_RDPS_WindSpeed_IsbL-0300_RLatLon0.09_PT083H.grib2 2026-05-08 09:04 465K
20260508T06Z_MSC_RDPS_WindSpeed_IsbL-0350_RLatLon0.09_PT083H.grib2 2026-05-08 09:04 473K
20260508T06Z_MSC_RDPS_WindSpeed_IsbL-0400_RLatLon0.09_PT083H.grib2 2026-05-08 09:04 459K
20260508T06Z_MSC_RDPS_WindSpeed_IsbL-0450_RLatLon0.09_PT083H.grib2 2026-05-08 09:04 463K
20260508T06Z_MSC_RDPS_WindSpeed_IsbL-0500_RLatLon0.09_PT083H.grib2 2026-05-08 09:04 467K
20260508T06Z_MSC_RDPS_WindSpeed_IsbL-0550_RLatLon0.09_PT083H.grib2 2026-05-08 09:04 586K
20260508T06Z_MSC_RDPS_WindSpeed_IsbL-0600_RLatLon0.09_PT083H.grib2 2026-05-08 09:04 595K
20260508T06Z_MSC_RDPS_WindSpeed_IsbL-0650_RLatLon0.09_PT083H.grib2 2026-05-08 09:04 658K
20260508T06Z_MSC_RDPS_WindSpeed_IsbL-0700_RLatLon0.09_PT083H.grib2 2026-05-08 09:04 684K
20260508T06Z_MSC_RDPS_WindSpeed_IsbL-0750_RLatLon0.09_PT083H.grib2 2026-05-08 09:04 714K
20260508T06Z_MSC_RDPS_WindSpeed_IsbL-0800_RLatLon0.09_PT083H.grib2 2026-05-08 09:04 768K
20260508T06Z_MSC_RDPS_WindSpeed_IsbL-0850_RLatLon0.09_PT083H.grib2 2026-05-08 09:04 824K
20260508T06Z_MSC_RDPS_WindSpeed_IsbL-0875_RLatLon0.09_PT083H.grib2 2026-05-08 09:04 843K
20260508T06Z_MSC_RDPS_WindSpeed_IsbL-0900_RLatLon0.09_PT083H.grib2 2026-05-08 09:04 857K
20260508T06Z_MSC_RDPS_WindSpeed_IsbL-0925_RLatLon0.09_PT083H.grib2 2026-05-08 09:04 869K
20260508T06Z_MSC_RDPS_WindSpeed_IsbL-0950_RLatLon0.09_PT083H.grib2 2026-05-08 09:04 869K
20260508T06Z_MSC_RDPS_WindSpeed_IsbL-0970_RLatLon0.09_PT083H.grib2 2026-05-08 09:04 865K
20260508T06Z_MSC_RDPS_WindSpeed_IsbL-0985_RLatLon0.09_PT083H.grib2 2026-05-08 09:04 862K
20260508T06Z_MSC_RDPS_WindSpeed_IsbL-1000_RLatLon0.09_PT083H.grib2 2026-05-08 09:04 858K
20260508T06Z_MSC_RDPS_WindSpeed_IsbL-1015_RLatLon0.09_PT083H.grib2 2026-05-08 09:04 853K
20260508T06Z_MSC_RDPS_WindU_AGL-10m_RLatLon0.09_PT083H.grib2 2026-05-08 09:04 441K
20260508T06Z_MSC_RDPS_WindU_AGL-120m_RLatLon0.09_PT083H.grib2 2026-05-08 09:04 541K
20260508T06Z_MSC_RDPS_WindU_AGL-40m_RLatLon0.09_PT083H.grib2 2026-05-08 09:04 545K
20260508T06Z_MSC_RDPS_WindU_AGL-80m_RLatLon0.09_PT083H.grib2 2026-05-08 09:04 543K
20260508T06Z_MSC_RDPS_WindU_IsbL-0001_RLatLon0.09_PT083H.grib2 2026-05-08 09:04 246K
20260508T06Z_MSC_RDPS_WindU_IsbL-0005_RLatLon0.09_PT083H.grib2 2026-05-08 09:04 286K
20260508T06Z_MSC_RDPS_WindU_IsbL-0010_RLatLon0.09_PT083H.grib2 2026-05-08 09:04 297K
20260508T06Z_MSC_RDPS_WindU_IsbL-0020_RLatLon0.09_PT083H.grib2 2026-05-08 09:04 355K
20260508T06Z_MSC_RDPS_WindU_IsbL-0030_RLatLon0.09_PT083H.grib2 2026-05-08 09:04 353K
20260508T06Z_MSC_RDPS_WindU_IsbL-0050_RLatLon0.09_PT083H.grib2 2026-05-08 09:04 341K
20260508T06Z_MSC_RDPS_WindU_IsbL-0100_RLatLon0.09_PT083H.grib2 2026-05-08 09:04 427K
20260508T06Z_MSC_RDPS_WindU_IsbL-0150_RLatLon0.09_PT083H.grib2 2026-05-08 09:04 385K
20260508T06Z_MSC_RDPS_WindU_IsbL-0175_RLatLon0.09_PT083H.grib2 2026-05-08 09:04 410K
20260508T06Z_MSC_RDPS_WindU_IsbL-0200_RLatLon0.09_PT083H.grib2 2026-05-08 09:04 425K
20260508T06Z_MSC_RDPS_WindU_IsbL-0225_RLatLon0.09_PT083H.grib2 2026-05-08 09:04 434K
20260508T06Z_MSC_RDPS_WindU_IsbL-0250_RLatLon0.09_PT083H.grib2 2026-05-08 09:04 438K
20260508T06Z_MSC_RDPS_WindU_IsbL-0275_RLatLon0.09_PT083H.grib2 2026-05-08 09:04 356K
20260508T06Z_MSC_RDPS_WindU_IsbL-0300_RLatLon0.09_PT083H.grib2 2026-05-08 09:04 352K
20260508T06Z_MSC_RDPS_WindU_IsbL-0350_RLatLon0.09_PT083H.grib2 2026-05-08 09:04 461K
20260508T06Z_MSC_RDPS_WindU_IsbL-0400_RLatLon0.09_PT083H.grib2 2026-05-08 09:04 464K
20260508T06Z_MSC_RDPS_WindU_IsbL-0450_RLatLon0.09_PT083H.grib2 2026-05-08 09:04 469K
20260508T06Z_MSC_RDPS_WindU_IsbL-0500_RLatLon0.09_PT083H.grib2 2026-05-08 09:04 472K
20260508T06Z_MSC_RDPS_WindU_IsbL-0550_RLatLon0.09_PT083H.grib2 2026-05-08 09:04 455K
20260508T06Z_MSC_RDPS_WindU_IsbL-0600_RLatLon0.09_PT083H.grib2 2026-05-08 09:04 464K
20260508T06Z_MSC_RDPS_WindU_IsbL-0650_RLatLon0.09_PT083H.grib2 2026-05-08 09:04 484K
20260508T06Z_MSC_RDPS_WindU_IsbL-0700_RLatLon0.09_PT083H.grib2 2026-05-08 09:04 507K
20260508T06Z_MSC_RDPS_WindU_IsbL-0750_RLatLon0.09_PT083H.grib2 2026-05-08 09:04 535K
20260508T06Z_MSC_RDPS_WindU_IsbL-0800_RLatLon0.09_PT083H.grib2 2026-05-08 09:04 583K
20260508T06Z_MSC_RDPS_WindU_IsbL-0850_RLatLon0.09_PT083H.grib2 2026-05-08 09:04 631K
20260508T06Z_MSC_RDPS_WindU_IsbL-0875_RLatLon0.09_PT083H.grib2 2026-05-08 09:04 647K
20260508T06Z_MSC_RDPS_WindU_IsbL-0900_RLatLon0.09_PT083H.grib2 2026-05-08 09:04 658K
20260508T06Z_MSC_RDPS_WindU_IsbL-0925_RLatLon0.09_PT083H.grib2 2026-05-08 09:04 667K
20260508T06Z_MSC_RDPS_WindU_IsbL-0950_RLatLon0.09_PT083H.grib2 2026-05-08 09:04 807K
20260508T06Z_MSC_RDPS_WindU_IsbL-0970_RLatLon0.09_PT083H.grib2 2026-05-08 09:04 803K
20260508T06Z_MSC_RDPS_WindU_IsbL-0985_RLatLon0.09_PT083H.grib2 2026-05-08 09:04 798K
20260508T06Z_MSC_RDPS_WindU_IsbL-1000_RLatLon0.09_PT083H.grib2 2026-05-08 09:04 796K
20260508T06Z_MSC_RDPS_WindU_IsbL-1015_RLatLon0.09_PT083H.grib2 2026-05-08 09:04 840K
20260508T06Z_MSC_RDPS_WindV_AGL-10m_RLatLon0.09_PT083H.grib2 2026-05-08 09:04 438K
20260508T06Z_MSC_RDPS_WindV_AGL-120m_RLatLon0.09_PT083H.grib2 2026-05-08 09:04 538K
20260508T06Z_MSC_RDPS_WindV_AGL-40m_RLatLon0.09_PT083H.grib2 2026-05-08 09:04 540K
20260508T06Z_MSC_RDPS_WindV_AGL-80m_RLatLon0.09_PT083H.grib2 2026-05-08 09:04 538K
20260508T06Z_MSC_RDPS_WindV_IsbL-0001_RLatLon0.09_PT083H.grib2 2026-05-08 09:04 248K
20260508T06Z_MSC_RDPS_WindV_IsbL-0005_RLatLon0.09_PT083H.grib2 2026-05-08 09:04 287K
20260508T06Z_MSC_RDPS_WindV_IsbL-0010_RLatLon0.09_PT083H.grib2 2026-05-08 09:04 301K
20260508T06Z_MSC_RDPS_WindV_IsbL-0020_RLatLon0.09_PT083H.grib2 2026-05-08 09:04 320K
20260508T06Z_MSC_RDPS_WindV_IsbL-0030_RLatLon0.09_PT083H.grib2 2026-05-08 09:04 317K
20260508T06Z_MSC_RDPS_WindV_IsbL-0050_RLatLon0.09_PT083H.grib2 2026-05-08 09:04 341K
20260508T06Z_MSC_RDPS_WindV_IsbL-0100_RLatLon0.09_PT083H.grib2 2026-05-08 09:04 422K
20260508T06Z_MSC_RDPS_WindV_IsbL-0150_RLatLon0.09_PT083H.grib2 2026-05-08 09:04 384K
20260508T06Z_MSC_RDPS_WindV_IsbL-0175_RLatLon0.09_PT083H.grib2 2026-05-08 09:04 408K
20260508T06Z_MSC_RDPS_WindV_IsbL-0200_RLatLon0.09_PT083H.grib2 2026-05-08 09:04 326K
20260508T06Z_MSC_RDPS_WindV_IsbL-0225_RLatLon0.09_PT083H.grib2 2026-05-08 09:04 334K
20260508T06Z_MSC_RDPS_WindV_IsbL-0250_RLatLon0.09_PT083H.grib2 2026-05-08 09:04 337K
20260508T06Z_MSC_RDPS_WindV_IsbL-0275_RLatLon0.09_PT083H.grib2 2026-05-08 09:04 354K
20260508T06Z_MSC_RDPS_WindV_IsbL-0300_RLatLon0.09_PT083H.grib2 2026-05-08 09:04 350K
20260508T06Z_MSC_RDPS_WindV_IsbL-0350_RLatLon0.09_PT083H.grib2 2026-05-08 09:04 357K
20260508T06Z_MSC_RDPS_WindV_IsbL-0400_RLatLon0.09_PT083H.grib2 2026-05-08 09:04 361K
20260508T06Z_MSC_RDPS_WindV_IsbL-0450_RLatLon0.09_PT083H.grib2 2026-05-08 09:04 466K
20260508T06Z_MSC_RDPS_WindV_IsbL-0500_RLatLon0.09_PT083H.grib2 2026-05-08 09:04 469K
20260508T06Z_MSC_RDPS_WindV_IsbL-0550_RLatLon0.09_PT083H.grib2 2026-05-08 09:04 470K
20260508T06Z_MSC_RDPS_WindV_IsbL-0600_RLatLon0.09_PT083H.grib2 2026-05-08 09:04 477K
20260508T06Z_MSC_RDPS_WindV_IsbL-0650_RLatLon0.09_PT083H.grib2 2026-05-08 09:04 479K
20260508T06Z_MSC_RDPS_WindV_IsbL-0700_RLatLon0.09_PT083H.grib2 2026-05-08 09:04 502K
20260508T06Z_MSC_RDPS_WindV_IsbL-0750_RLatLon0.09_PT083H.grib2 2026-05-08 09:04 529K
20260508T06Z_MSC_RDPS_WindV_IsbL-0800_RLatLon0.09_PT083H.grib2 2026-05-08 09:04 578K
20260508T06Z_MSC_RDPS_WindV_IsbL-0850_RLatLon0.09_PT083H.grib2 2026-05-08 09:04 626K
20260508T06Z_MSC_RDPS_WindV_IsbL-0875_RLatLon0.09_PT083H.grib2 2026-05-08 09:04 641K
20260508T06Z_MSC_RDPS_WindV_IsbL-0900_RLatLon0.09_PT083H.grib2 2026-05-08 09:04 653K
20260508T06Z_MSC_RDPS_WindV_IsbL-0925_RLatLon0.09_PT083H.grib2 2026-05-08 09:04 661K
20260508T06Z_MSC_RDPS_WindV_IsbL-0950_RLatLon0.09_PT083H.grib2 2026-05-08 09:04 660K
20260508T06Z_MSC_RDPS_WindV_IsbL-0970_RLatLon0.09_PT083H.grib2 2026-05-08 09:04 798K
20260508T06Z_MSC_RDPS_WindV_IsbL-0985_RLatLon0.09_PT083H.grib2 2026-05-08 09:04 795K
20260508T06Z_MSC_RDPS_WindV_IsbL-1000_RLatLon0.09_PT083H.grib2 2026-05-08 09:04 792K
20260508T06Z_MSC_RDPS_WindV_IsbL-1015_RLatLon0.09_PT083H.grib2 2026-05-08 09:04 835K